| time (UTC) | temp C | wind direction | speed KPH | gust KPH | rain 1hr cm | rain 24hr cm | rain mn cm | humidity % | barometer mb |
| 20260502130404 | 11 | 350 | 0.0 | 0.0 | 0.00 | 1.63 | 0.03 | 98 | 1023.4 |
| 20260502123633 | 10 | 0 | 0.0 | 0.0 | 0.00 | 1.83 | 0.03 | 98 | 1023.0 |
| 20260502122901 | 10 | 0 | 0.0 | 0.0 | 0.00 | 1.85 | 0.03 | 98 | 1022.9 |
| 20260502122402 | 10 | 0 | 0.0 | 0.0 | 0.00 | 1.88 | 0.03 | 98 | 1022.8 |
| 20260502121902 | 9 | 0 | 0.0 | 0.0 | 0.00 | 1.91 | 0.03 | 98 | 1022.8 |
| 20260502121634 | 9 | 0 | 0.0 | 0.0 | 0.00 | 1.96 | 0.03 | 97 | 1022.7 |
| 20260502120901 | 9 | 0 | 0.0 | 0.0 | 0.00 | 1.98 | 0.03 | 97 | 1022.6 |
| 20260502120401 | 9 | 0 | 0.0 | 0.0 | 0.00 | 2.01 | 0.03 | 97 | 1022.6 |
| 20260502115906 | 9 | 0 | 0.0 | 0.0 | 0.00 | 2.08 | 0.03 | 97 | 1022.4 |
| 20260502115902 | 9 | 0 | 0.0 | 0.0 | 0.00 | 2.06 | 0.03 | 97 | 1022.5 |
| 20260502114901 | 9 | 0 | 0.0 | 0.0 | 0.00 | 2.11 | 0.03 | 97 | 1022.4 |
| 20260502114359 | 9 | 0 | 0.0 | 0.0 | 0.00 | 2.11 | 0.03 | 97 | 1022.3 |
| 20260502113858 | 9 | 0 | 0.0 | 0.0 | 0.00 | 2.13 | 0.03 | 97 | 1022.1 |
| 20260502113358 | 10 | 0 | 0.0 | 0.0 | 0.00 | 2.16 | 0.03 | 97 | 1022.1 |
| 20260502112858 | 10 | 0 | 0.0 | 0.0 | 0.00 | 2.18 | 0.03 | 97 | 1022.1 |
| 20260502112400 | 10 | 0 | 0.0 | 0.0 | 0.00 | 2.21 | 0.03 | 97 | 1022.0 |
| 20260502111900 | 10 | 0 | 0.0 | 0.0 | 0.00 | 2.24 | 0.03 | 97 | 1022.0 |
| 20260502111400 | 10 | 0 | 0.0 | 0.0 | 0.00 | 2.24 | 0.03 | 97 | 1021.9 |
| 20260502110859 | 10 | 0 | 0.0 | 0.0 | 0.00 | 2.26 | 0.03 | 97 | 1021.9 |
| 20260502110358 | 10 | 0 | 0.0 | 0.0 | 0.00 | 2.29 | 0.03 | 97 | 1021.8 |
| 20260502110130 | 10 | 0 | 0.0 | 0.0 | 0.00 | 2.29 | 0.03 | 97 | 1021.6 |
| 20260502105357 | 10 | 0 | 0.0 | 0.0 | 0.00 | 2.31 | 0.03 | 97 | 1021.6 |
| 20260502104903 | 10 | 0 | 0.0 | 0.0 | 0.03 | 2.34 | 0.03 | 97 | 1021.6 |
| 20260502104859 | 10 | 0 | 0.0 | 0.0 | 0.00 | 2.31 | 0.03 | 97 | 1021.6 |
| 20260502104126 | 10 | 0 | 0.0 | 0.0 | 0.03 | 2.34 | 0.03 | 97 | 1021.6 |
| 20260502103353 | 10 | 0 | 0.0 | 0.0 | 0.03 | 2.36 | 0.03 | 97 | 1021.4 |
| 20260502102852 | 10 | 0 | 0.0 | 0.0 | 0.03 | 2.39 | 0.03 | 97 | 1021.5 |
| 20260502102354 | 10 | 0 | 0.0 | 0.0 | 0.03 | 2.39 | 0.03 | 97 | 1021.6 |
| 20260502101854 | 10 | 0 | 0.0 | 0.0 | 0.03 | 2.44 | 0.03 | 97 | 1021.5 |
| 20260502101352 | 10 | 0 | 0.0 | 0.0 | 0.03 | 2.46 | 0.03 | 97 | 1021.4 |
| 20260502100851 | 10 | 0 | 0.0 | 0.0 | 0.03 | 2.49 | 0.03 | 97 | 1021.4 |
| 20260502100350 | 10 | 0 | 0.0 | 0.0 | 0.03 | 2.49 | 0.03 | 97 | 1021.4 |
| 20260502100120 | 10 | 0 | 0.0 | 0.0 | 0.03 | 2.51 | 0.03 | 97 | 1021.3 |
| 20260502091342 | 10 | 5 | 0.0 | 0.0 | 0.00 | 2.69 | 0.00 | 97 | 1021.2 |
| 20260502090844 | 10 | 5 | 0.0 | 0.0 | 0.00 | 2.69 | 0.00 | 97 | 1021.0 |
| 20260502090340 | 10 | 5 | 0.0 | 0.0 | 0.00 | 2.72 | 0.00 | 97 | 1021.0 |
| 20260502071342 | 10 | 20 | 0.0 | 0.0 | 0.00 | 2.95 | 0.00 | 97 | 1020.7 |
| 20260502070839 | 10 | 20 | 0.0 | 0.0 | 0.00 | 2.95 | 0.00 | 97 | 1020.6 |
| 20260502070338 | 10 | 20 | 0.0 | 0.0 | 0.00 | 2.95 | 0.00 | 97 | 1020.6 |
| 20260502065838 | 10 | 20 | 0.0 | 0.0 | 0.00 | 2.95 | 0.00 | 97 | 1020.7 |
| 20260502065336 | 10 | 22 | 0.0 | 0.0 | 0.00 | 2.95 | 0.00 | 97 | 1020.8 |
| 20260502064837 | 10 | 21 | 0.0 | 0.0 | 0.00 | 2.95 | 0.00 | 97 | 1020.6 |
| 20260502064338 | 10 | 22 | 0.0 | 0.0 | 0.00 | 2.95 | 0.00 | 97 | 1020.4 |
| 20260502063835 | 11 | 22 | 0.0 | 0.0 | 0.00 | 2.97 | 0.00 | 96 | 1020.6 |
| 20260502063337 | 11 | 21 | 0.0 | 0.0 | 0.00 | 2.97 | 0.00 | 96 | 1020.7 |
| 20260502062832 | 11 | 21 | 0.0 | 0.0 | 0.00 | 2.97 | 0.00 | 97 | 1020.6 |
| 20260502062604 | 11 | 22 | 0.0 | 0.0 | 0.00 | 2.97 | 0.00 | 97 | 1020.7 |
| 20260502061833 | 11 | 21 | 0.0 | 0.0 | 0.00 | 2.97 | 0.00 | 97 | 1020.9 |
| 20260502061333 | 11 | 21 | 0.0 | 0.0 | 0.00 | 2.97 | 0.00 | 96 | 1021.0 |
| 20260502060833 | 11 | 19 | 0.0 | 0.0 | 0.00 | 2.97 | 0.00 | 96 | 1020.8 |
| 20260502060333 | 11 | 19 | 0.0 | 0.0 | 0.00 | 2.97 | 0.00 | 96 | 1020.9 |
| 20260502055833 | 11 | 19 | 0.0 | 0.0 | 0.00 | 2.97 | 0.00 | 97 | 1020.8 |
| 20260502055604 | 11 | 39 | 0.0 | 0.0 | 0.00 | 2.97 | 0.00 | 97 | 1020.9 |
| 20260502054837 | 11 | 38 | 0.0 | 0.0 | 0.00 | 3.00 | 0.00 | 97 | 1020.5 |
| 20260502054330 | 11 | 28 | 0.0 | 0.0 | 0.00 | 3.00 | 0.00 | 97 | 1020.3 |
| 20260502053831 | 11 | 27 | 0.0 | 0.0 | 0.00 | 3.00 | 0.00 | 97 | 1020.3 |
| 20260502053559 | 11 | 33 | 0.0 | 0.0 | 0.00 | 3.00 | 0.00 | 97 | 1020.4 |
| 20260502052828 | 11 | 32 | 0.0 | 0.0 | 0.00 | 3.00 | 0.00 | 97 | 1020.5 |
| 20260502052328 | 11 | 0 | 0.0 | 0.0 | 0.00 | 3.00 | 0.00 | 97 | 1020.5 |
| 20260502051824 | 11 | 24 | 0.0 | 0.0 | 0.00 | 3.00 | 0.00 | 97 | 1020.5 |
| 20260502051325 | 11 | 46 | 0.0 | 0.0 | 0.00 | 3.00 | 0.00 | 97 | 1020.5 |
| 20260502050825 | 11 | 24 | 0.0 | 0.0 | 0.00 | 3.00 | 0.00 | 97 | 1020.7 |
| 20260502050324 | 11 | 341 | 0.0 | 0.0 | 0.00 | 3.00 | 0.00 | 97 | 1020.5 |
| 20260502045824 | 11 | 5 | 0.0 | 0.0 | 0.00 | 3.00 | 3.00 | 97 | 1020.5 |
| 20260502045325 | 11 | 0 | 0.0 | 0.0 | 0.00 | 3.00 | 3.00 | 97 | 1020.4 |
| 20260502045055 | 11 | 18 | 0.0 | 0.0 | 0.00 | 3.00 | 3.00 | 97 | 1020.5 |
| 20260502044325 | 11 | 23 | 0.0 | 0.0 | 0.00 | 3.02 | 3.00 | 97 | 1020.5 |
| 20260502043825 | 11 | 26 | 0.0 | 0.0 | 0.00 | 3.02 | 3.00 | 97 | 1020.4 |
| 20260502043327 | 11 | 26 | 0.0 | 0.0 | 0.00 | 3.05 | 3.00 | 97 | 1020.3 |
| 20260502042824 | 11 | 27 | 0.0 | 0.0 | 0.00 | 3.05 | 3.00 | 97 | 1020.4 |
| 20260502042325 | 11 | 27 | 0.0 | 0.0 | 0.00 | 3.07 | 3.00 | 97 | 1020.4 |
| 20260502041826 | 11 | 28 | 0.0 | 0.0 | 0.00 | 3.07 | 3.00 | 97 | 1020.4 |
| 20260502041553 | 11 | 29 | 0.0 | 0.0 | 0.00 | 3.07 | 3.00 | 97 | 1020.4 |
| 20260502040818 | 11 | 23 | 0.0 | 0.0 | 0.00 | 3.07 | 3.00 | 97 | 1020.5 |
| 20260502040319 | 11 | 28 | 0.0 | 0.0 | 0.00 | 3.07 | 3.00 | 97 | 1020.5 |
| 20260502035817 | 11 | 25 | 0.0 | 0.0 | 0.00 | 3.07 | 3.00 | 97 | 1020.6 |
| 20260502035317 | 11 | 40 | 0.0 | 0.0 | 0.00 | 3.07 | 3.00 | 97 | 1020.7 |
| 20260502034814 | 11 | 42 | 0.0 | 0.0 | 0.00 | 3.07 | 3.00 | 97 | 1020.7 |
| 20260502034315 | 11 | 41 | 0.0 | 0.0 | 0.00 | 3.07 | 3.00 | 97 | 1020.6 |
| 20260502033814 | 11 | 39 | 0.0 | 0.0 | 0.00 | 3.07 | 3.00 | 97 | 1020.5 |
| 20260502033314 | 11 | 10 | 0.0 | 0.0 | 0.00 | 3.07 | 3.00 | 97 | 1020.6 |
| 20260502032813 | 11 | 48 | 0.0 | 0.0 | 0.00 | 3.07 | 3.00 | 97 | 1020.5 |
| 20260502032545 | 11 | 355 | 0.0 | 0.0 | 0.00 | 3.07 | 3.00 | 97 | 1020.4 |
| 20260502032043 | 11 | 134 | 0.0 | 0.0 | 0.00 | 3.07 | 3.00 | 97 | 1020.4 |
| 20260502031543 | 11 | 41 | 0.0 | 0.0 | 0.00 | 3.07 | 3.00 | 97 | 1020.3 |
| 20260502030814 | 11 | 38 | 0.0 | 0.0 | 0.00 | 3.07 | 3.00 | 97 | 1020.3 |
| 20260502030314 | 11 | 42 | 0.0 | 0.0 | 0.00 | 3.07 | 3.00 | 97 | 1020.2 |
| 20260502025810 | 11 | 53 | 0.0 | 0.0 | 0.00 | 3.07 | 3.00 | 98 | 1020.2 |
| 20260502025310 | 11 | 42 | 0.0 | 0.0 | 0.00 | 3.07 | 3.00 | 97 | 1020.1 |
| 20260502024812 | 11 | 62 | 0.0 | 0.0 | 0.00 | 3.07 | 3.00 | 97 | 1020.0 |
| 20260502024311 | 11 | 337 | 0.0 | 0.0 | 0.00 | 3.07 | 3.00 | 98 | 1019.9 |
| 20260502023808 | 11 | 48 | 0.0 | 0.0 | 0.00 | 3.07 | 3.00 | 98 | 1019.8 |
| 20260502022809 | 11 | 39 | 0.0 | 0.0 | 0.00 | 3.07 | 3.00 | 98 | 1019.6 |
| 20260502022310 | 11 | 355 | 0.0 | 0.0 | 0.00 | 3.07 | 3.00 | 98 | 1019.6 |
| 20260502021808 | 11 | 338 | 0.0 | 4.8 | 0.00 | 3.07 | 3.00 | 97 | 1019.4 |
| 20260502021308 | 11 | 33 | 0.0 | 4.8 | 0.00 | 3.07 | 3.00 | 97 | 1019.4 |
| 20260502020809 | 11 | 75 | 0.0 | 1.6 | 0.00 | 3.07 | 3.00 | 97 | 1019.4 |
| 20260502020539 | 11 | 355 | 0.0 | 0.0 | 0.00 | 3.07 | 3.00 | 98 | 1019.4 |
| 20260502015808 | 11 | 0 | 0.0 | 0.0 | 0.00 | 3.07 | 3.00 | 97 | 1019.0 |
| 20260502015308 | 11 | 334 | 0.0 | 3.2 | 0.00 | 3.07 | 3.00 | 98 | 1019.0 |
| 20260502014806 | 11 | 30 | 0.0 | 3.2 | 0.00 | 3.07 | 3.00 | 97 | 1018.6 |
| 20260502014307 | 11 | 32 | 0.0 | 0.0 | 0.00 | 3.07 | 3.00 | 98 | 1018.5 |
| 20260502013806 | 11 | 34 | 0.0 | 0.0 | 0.03 | 3.07 | 3.00 | 98 | 1018.6 |
| 20260502013307 | 12 | 72 | 0.0 | 11.3 | 0.03 | 3.07 | 3.00 | 98 | 1018.7 |
| 20260502012807 | 12 | 327 | 0.0 | 11.3 | 0.03 | 3.07 | 3.00 | 98 | 1019.0 |
| 20260502012538 | 12 | 24 | 0.0 | 0.0 | 0.03 | 3.07 | 3.00 | 98 | 1018.8 |
| 20260502011806 | 12 | 46 | 0.0 | 0.0 | 0.03 | 3.07 | 3.00 | 98 | 1018.7 |
| 20260502011307 | 12 | 10 | 0.0 | 0.0 | 0.05 | 3.07 | 3.00 | 98 | 1018.7 |
| 20260502010807 | 12 | 9 | 0.0 | 0.0 | 0.05 | 3.07 | 3.00 | 98 | 1018.6 |
| 20260502010539 | 12 | 0 | 0.0 | 0.0 | 0.05 | 3.07 | 3.00 | 98 | 1018.7 |
| 20260502005804 | 12 | 46 | 0.0 | 0.0 | 0.05 | 3.07 | 3.00 | 98 | 1018.6 |
| 20260502005306 | 12 | 23 | 0.0 | 0.0 | 0.08 | 3.07 | 3.00 | 98 | 1018.4 |
| 20260502004805 | 12 | 46 | 0.0 | 0.0 | 0.08 | 3.07 | 3.00 | 98 | 1018.2 |
| 20260502004533 | 12 | 20 | 0.0 | 0.0 | 0.10 | 3.07 | 3.00 | 98 | 1018.1 |
| 20260502003807 | 12 | 38 | 0.0 | 0.0 | 0.13 | 3.05 | 2.97 | 98 | 1018.3 |
| 20260502003803 | 12 | 63 | 0.0 | 0.0 | 0.10 | 3.05 | 2.97 | 98 | 1017.9 |
| 20260502003424 | 12 | 5 | 0.0 | 0.0 | 0.13 | 3.05 | 2.97 | 98 | 1018.6 |
| 20260502002305 | 12 | 11 | 0.0 | 0.0 | 0.15 | 3.05 | 2.97 | 98 | 1018.9 |
| 20260502001802 | 12 | 346 | 0.0 | 0.0 | 0.15 | 3.05 | 2.97 | 98 | 1018.8 |
| 20260502001301 | 12 | 20 | 0.0 | 0.0 | 0.15 | 3.02 | 2.95 | 97 | 1018.7 |
| 20260502000800 | 12 | 351 | 0.0 | 0.0 | 0.15 | 3.02 | 2.95 | 98 | 1018.7 |
| 20260502000302 | 12 | 28 | 0.0 | 0.0 | 0.15 | 3.02 | 2.95 | 98 | 1018.5 |
| 20260501235800 | 12 | 325 | 0.0 | 0.0 | 0.15 | 3.02 | 2.95 | 98 | 1018.5 |
| 20260501235259 | 12 | 5 | 0.0 | 0.0 | 0.13 | 3.00 | 2.92 | 98 | 1018.3 |
| 20260501234801 | 12 | 5 | 0.0 | 0.0 | 0.13 | 3.00 | 2.92 | 98 | 1018.2 |
| 20260501234302 | 12 | 31 | 0.0 | 0.0 | 0.13 | 2.97 | 2.90 | 97 | 1018.3 |
| 20260501233800 | 12 | 5 | 0.0 | 0.0 | 0.13 | 2.95 | 2.87 | 97 | 1018.1 |
| 20260501233259 | 12 | 355 | 0.0 | 0.0 | 0.13 | 2.92 | 2.84 | 97 | 1017.7 |
| 20260501232757 | 12 | 5 | 0.0 | 0.0 | 0.13 | 2.92 | 2.84 | 97 | 1017.8 |
| 20260501232258 | 12 | 38 | 0.0 | 0.0 | 0.13 | 2.90 | 2.82 | 98 | 1017.7 |
| 20260501231756 | 12 | 5 | 0.0 | 0.0 | 0.13 | 2.90 | 2.82 | 98 | 1017.7 |
| 20260501231257 | 12 | 44 | 0.0 | 0.0 | 0.10 | 2.87 | 2.82 | 97 | 1017.4 |
| 20260501230756 | 13 | 355 | 0.0 | 0.0 | 0.10 | 2.87 | 2.79 | 97 | 1017.1 |
| 20260501230256 | 13 | 273 | 0.0 | 0.0 | 0.10 | 2.87 | 2.79 | 97 | 1016.9 |
| 20260501225755 | 13 | 319 | 0.0 | 0.0 | 0.10 | 2.87 | 2.79 | 98 | 1016.8 |
| 20260501225255 | 13 | 12 | 0.0 | 0.0 | 0.10 | 2.87 | 2.79 | 98 | 1016.6 |
| 20260501224752 | 13 | 22 | 0.0 | 0.0 | 0.10 | 2.87 | 2.79 | 98 | 1016.2 |
| 20260501224251 | 13 | 53 | 0.0 | 0.0 | 0.10 | 2.84 | 2.77 | 97 | 1016.5 |
| 20260501223752 | 13 | 45 | 0.0 | 0.0 | 0.08 | 2.82 | 2.77 | 98 | 1016.5 |
| 20260501223251 | 13 | 25 | 0.0 | 0.0 | 0.05 | 2.79 | 2.72 | 97 | 1016.5 |
| 20260501222752 | 13 | 350 | 0.0 | 0.0 | 0.05 | 2.79 | 2.72 | 97 | 1016.4 |
| 20260501222523 | 13 | 31 | 0.0 | 0.0 | 0.03 | 2.77 | 2.69 | 98 | 1016.4 |
| 20260501221753 | 13 | 57 | 0.0 | 6.4 | 0.05 | 2.77 | 2.69 | 98 | 1016.1 |
| 20260501221251 | 13 | 335 | 0.0 | 6.4 | 0.08 | 2.77 | 2.69 | 97 | 1015.7 |
| 20260501220751 | 13 | 13 | 0.0 | 0.0 | 0.10 | 2.77 | 2.69 | 98 | 1015.4 |
| 20260501220250 | 13 | 14 | 0.0 | 17.7 | 0.15 | 2.77 | 2.69 | 98 | 1014.9 |
| 20260501215749 | 14 | 355 | 1.6 | 17.7 | 0.18 | 2.77 | 2.69 | 98 | 1014.5 |
| 20260501215249 | 14 | 38 | 1.6 | 17.7 | 0.20 | 2.77 | 2.69 | 98 | 1014.4 |
| 20260501214747 | 14 | 337 | 0.0 | 17.7 | 0.20 | 2.77 | 2.69 | 98 | 1014.1 |
| 20260501214250 | 14 | 48 | 0.0 | 0.0 | 0.18 | 2.74 | 2.67 | 98 | 1015.3 |
| 20260501213747 | 14 | 0 | 0.0 | 1.6 | 0.18 | 2.74 | 2.67 | 98 | 1015.5 |
| 20260501213245 | 14 | 5 | 0.0 | 1.6 | 0.18 | 2.74 | 2.67 | 98 | 1015.4 |
| 20260501212746 | 14 | 0 | 0.0 | 0.0 | 0.18 | 2.74 | 2.67 | 98 | 1015.4 |
| 20260501212244 | 14 | 18 | 0.0 | 0.0 | 0.18 | 2.74 | 2.67 | 98 | 1015.6 |
| 20260501212016 | 14 | 32 | 0.0 | 0.0 | 0.15 | 2.72 | 2.64 | 98 | 1015.7 |
| 20260501211242 | 14 | 300 | 0.0 | 0.0 | 0.13 | 2.69 | 2.64 | 98 | 1016.0 |
| 20260501210741 | 14 | 9 | 0.0 | 0.0 | 0.08 | 2.64 | 2.59 | 98 | 1016.6 |
| 20260501210241 | 14 | 26 | 0.0 | 0.0 | 0.08 | 2.62 | 2.54 | 98 | 1016.6 |
| 20260501205740 | 14 | 15 | 0.0 | 0.0 | 0.08 | 2.59 | 2.51 | 98 | 1016.5 |
| 20260501205241 | 14 | 9 | 0.0 | 0.0 | 0.08 | 2.57 | 2.49 | 98 | 1015.9 |
| 20260501204740 | 14 | 15 | 0.0 | 1.6 | 0.10 | 2.57 | 2.49 | 98 | 1015.3 |
| 20260501204241 | 14 | 83 | 0.0 | 1.6 | 0.13 | 2.57 | 2.49 | 98 | 1014.8 |
| 20260501203741 | 15 | 42 | 0.0 | 0.0 | 0.15 | 2.57 | 2.49 | 98 | 1014.6 |
| 20260501203240 | 15 | 24 | 0.0 | 9.7 | 0.18 | 2.57 | 2.49 | 98 | 1014.5 |
| 20260501203011 | 15 | 0 | 0.0 | 9.7 | 0.20 | 2.57 | 2.49 | 98 | 1014.6 |
| 20260501202240 | 15 | 24 | 0.0 | 0.0 | 0.20 | 2.57 | 2.49 | 98 | 1015.3 |
| 20260501201740 | 15 | 34 | 0.0 | 0.0 | 0.20 | 2.57 | 2.49 | 98 | 1015.9 |
| 20260501201239 | 15 | 20 | 0.0 | 0.0 | 0.20 | 2.57 | 2.49 | 98 | 1016.0 |
| 20260501200741 | 15 | 40 | 0.0 | 0.0 | 0.20 | 2.57 | 2.49 | 98 | 1015.7 |
| 20260501200240 | 14 | 76 | 0.0 | 0.0 | 0.18 | 2.54 | 2.46 | 98 | 1016.1 |
| 20260501200009 | 14 | 44 | 0.0 | 0.0 | 0.15 | 2.51 | 2.44 | 98 | 1016.5 |
| 20260501195856 | 14 | 71 | 0.0 | 0.0 | 0.13 | 2.49 | 2.41 | 98 | 1017.1 |
| 20260501194738 | 14 | 333 | 0.0 | 0.0 | 0.10 | 2.46 | 2.39 | 98 | 1017.0 |
| 20260501194237 | 14 | 5 | 0.0 | 0.0 | 0.08 | 2.44 | 2.36 | 98 | 1016.3 |
| 20260501193738 | 14 | 26 | 0.0 | 0.0 | 0.05 | 2.41 | 2.34 | 98 | 1016.7 |
| 20260501193508 | 14 | 343 | 0.0 | 0.0 | 0.03 | 2.39 | 2.34 | 98 | 1016.6 |
| 20260501192737 | 14 | 340 | 0.0 | 0.0 | 0.00 | 2.36 | 2.31 | 98 | 1016.0 |
| 20260501192238 | 14 | 16 | 0.0 | 0.0 | 0.00 | 2.36 | 2.29 | 98 | 1016.0 |
| 20260501191739 | 14 | 12 | 0.0 | 0.0 | 0.00 | 2.36 | 2.29 | 98 | 1016.3 |
| 20260501191238 | 14 | 17 | 0.0 | 0.0 | 0.00 | 2.36 | 2.29 | 98 | 1016.2 |
| 20260501190737 | 15 | 86 | 0.0 | 0.0 | 0.00 | 2.36 | 2.29 | 98 | 1016.0 |
| 20260501190238 | 15 | 10 | 0.0 | 0.0 | 0.00 | 2.36 | 2.29 | 98 | 1015.4 |
| 20260501185738 | 15 | 349 | 0.0 | 0.0 | 0.00 | 2.36 | 2.29 | 98 | 1014.9 |
| 20260501185237 | 15 | 336 | 0.0 | 0.0 | 0.00 | 2.36 | 2.29 | 98 | 1014.3 |
| 20260501184737 | 15 | 50 | 0.0 | 0.0 | 0.00 | 2.36 | 2.29 | 98 | 1014.0 |
| 20260501184239 | 15 | 47 | 0.0 | 1.6 | 0.00 | 2.36 | 2.29 | 98 | 1014.0 |
| 20260501184008 | 15 | 40 | 0.0 | 8.0 | 0.00 | 2.36 | 2.29 | 98 | 1013.6 |
| 20260501183239 | 15 | 66 | 0.0 | 8.0 | 0.03 | 2.36 | 2.29 | 98 | 1013.3 |
| 20260501182738 | 15 | 30 | 0.0 | 1.6 | 0.03 | 2.36 | 2.29 | 98 | 1013.4 |
| 20260501182237 | 15 | 46 | 0.0 | 0.0 | 0.05 | 2.39 | 2.29 | 98 | 1013.5 |
| 20260501181737 | 15 | 19 | 0.0 | 0.0 | 0.08 | 2.46 | 2.29 | 99 | 1013.8 |
| 20260501181239 | 15 | 5 | 0.0 | 12.9 | 0.08 | 2.49 | 2.29 | 98 | 1013.8 |
| 20260501180735 | 15 | 32 | 0.0 | 16.1 | 0.10 | 2.54 | 2.29 | 98 | 1014.0 |
| 20260501180505 | 15 | 5 | 1.6 | 16.1 | 0.10 | 2.59 | 2.29 | 98 | 1013.8 |
| 20260501175730 | 15 | 28 | 3.2 | 24.1 | 0.13 | 2.72 | 2.29 | 99 | 1013.9 |
| 20260501175502 | 15 | 355 | 4.8 | 24.1 | 0.13 | 2.82 | 2.29 | 99 | 1013.6 |
| 20260501175000 | 14 | 344 | 1.6 | 14.5 | 0.13 | 2.90 | 2.29 | 98 | 1013.1 |
| 20260501174500 | 14 | 93 | 0.0 | 1.6 | 0.13 | 2.92 | 2.29 | 98 | 1013.8 |
| 20260501173725 | 14 | 86 | 0.0 | 1.6 | 0.13 | 3.00 | 2.29 | 98 | 1014.0 |
| 20260501173225 | 14 | 64 | 0.0 | 3.2 | 0.10 | 3.30 | 2.26 | 98 | 1014.9 |
| 20260501172723 | 14 | 34 | 0.0 | 9.7 | 0.08 | 3.35 | 2.24 | 98 | 1015.7 |
| 20260501172222 | 14 | 47 | 0.0 | 9.7 | 0.08 | 3.35 | 2.24 | 98 | 1016.1 |
| 20260501171722 | 14 | 70 | 0.0 | 1.6 | 0.05 | 3.33 | 2.24 | 98 | 1016.6 |
| 20260501171220 | 14 | 57 | 0.0 | 1.6 | 0.08 | 3.33 | 2.21 | 98 | 1017.0 |
| 20260501170718 | 14 | 45 | 0.0 | 0.0 | 0.05 | 3.30 | 2.18 | 98 | 1017.3 |
| 20260501170214 | 14 | 51 | 0.0 | 0.0 | 0.05 | 3.30 | 2.18 | 98 | 1017.4 |
| 20260501165714 | 14 | 34 | 0.0 | 1.6 | 0.03 | 3.28 | 2.16 | 98 | 1017.5 |
| 20260501165213 | 14 | 13 | 0.0 | 1.6 | 0.03 | 3.28 | 2.16 | 98 | 1017.3 |
| 20260501164718 | 14 | 38 | 0.0 | 0.0 | 0.05 | 3.28 | 2.16 | 98 | 1017.5 |
| 20260501164713 | 14 | 66 | 0.0 | 0.0 | 0.05 | 3.28 | 2.16 | 98 | 1017.4 |
| 20260501163710 | 14 | 17 | 0.0 | 0.0 | 0.08 | 3.28 | 2.16 | 98 | 1017.3 |
| 20260501163442 | 14 | 82 | 0.0 | 0.0 | 0.10 | 3.30 | 2.16 | 98 | 1017.2 |
| 20260501162710 | 14 | 5 | 0.0 | 0.0 | 0.13 | 3.30 | 2.16 | 98 | 1016.9 |
| 20260501162211 | 14 | 346 | 0.0 | 0.0 | 0.13 | 3.30 | 2.16 | 98 | 1016.7 |
| 20260501161711 | 14 | 0 | 0.0 | 0.0 | 0.15 | 3.56 | 2.16 | 98 | 1016.5 |
| 20260501161210 | 14 | 35 | 0.0 | 0.0 | 0.15 | 3.99 | 2.13 | 98 | 1017.1 |
| 20260501160709 | 14 | 57 | 0.0 | 0.0 | 0.15 | 4.55 | 2.13 | 98 | 1017.5 |
| 20260501160211 | 14 | 27 | 0.0 | 0.0 | 0.18 | 4.60 | 2.13 | 98 | 1017.6 |
| 20260501155941 | 14 | 39 | 0.0 | 0.0 | 0.18 | 4.60 | 2.13 | 98 | 1017.7 |
| 20260501155207 | 14 | 26 | 0.0 | 0.0 | 0.18 | 4.60 | 2.13 | 98 | 1017.7 |
| 20260501154707 | 15 | 346 | 0.0 | 0.0 | 0.18 | 4.57 | 2.11 | 98 | 1018.1 |
| 20260501154437 | 14 | 36 | 0.0 | 0.0 | 0.18 | 4.57 | 2.11 | 99 | 1018.2 |
| 20260501153708 | 14 | 36 | 0.0 | 0.0 | 0.18 | 4.55 | 2.08 | 98 | 1018.5 |
| 20260501153438 | 14 | 28 | 0.0 | 0.0 | 0.18 | 4.52 | 2.06 | 98 | 1018.6 |
| 20260501152707 | 14 | 5 | 0.0 | 0.0 | 0.18 | 4.50 | 2.06 | 98 | 1018.8 |
| 20260501152440 | 14 | 60 | 0.0 | 0.0 | 0.20 | 4.50 | 2.03 | 98 | 1018.9 |
| 20260501151708 | 14 | 314 | 0.0 | 0.0 | 0.23 | 4.47 | 2.01 | 98 | 1019.0 |
| 20260501151209 | 14 | 306 | 0.0 | 0.0 | 0.23 | 4.45 | 1.98 | 98 | 1018.8 |
| 20260501150707 | 14 | 292 | 0.0 | 0.0 | 0.28 | 4.45 | 1.98 | 98 | 1018.3 |
| 20260501150206 | 14 | 11 | 0.0 | 0.0 | 0.28 | 4.42 | 1.96 | 98 | 1017.9 |
| 20260501145707 | 14 | 53 | 0.0 | 0.0 | 0.30 | 4.42 | 1.96 | 98 | 1017.5 |
| 20260501145205 | 14 | 5 | 0.0 | 0.0 | 0.33 | 4.42 | 1.96 | 98 | 1017.5 |
| 20260501144936 | 14 | 11 | 0.0 | 0.0 | 0.33 | 4.39 | 1.93 | 98 | 1017.3 |
| 20260501144434 | 14 | 38 | 0.0 | 0.0 | 0.36 | 4.39 | 1.93 | 98 | 1017.0 |
| 20260501143704 | 14 | 5 | 0.0 | 0.0 | 0.36 | 4.37 | 1.91 | 98 | 1016.8 |